| time (UTC) | temp C | wind direction | speed KPH | gust KPH | rain 1hr cm | rain 24hr cm | rain mn cm | humidity % | barometer mb |
| 20260507060110 | 9 | 360 | 8.0 | 14.5 | 0.00 | 0.00 | 0.00 | 75 | 1015.1 |
| 20260507054554 | 9 | 360 | 8.0 | 14.5 | 0.00 | 0.00 | 0.00 | 75 | 1015.1 |
| 20260507053047 | 8 | 360 | 9.7 | 12.9 | 0.00 | 0.00 | 0.00 | 76 | 1015.0 |
| 20260507051559 | 8 | 360 | 8.0 | 11.3 | 0.00 | 0.00 | 0.00 | 78 | 1014.9 |
| 20260507050047 | 7 | 360 | 8.0 | 12.9 | 0.00 | 0.00 | 0.00 | 85 | 1014.9 |
| 20260507044541 | 4 | 360 | 0.0 | 1.6 | 0.00 | 0.00 | 0.00 | 84 | 1014.9 |
| 20260507043041 | 3 | 360 | 0.0 | 3.2 | 0.00 | 0.00 | 0.00 | 83 | 1014.7 |
| 20260507041539 | 3 | 360 | 0.0 | 4.8 | 0.00 | 0.00 | 0.00 | 82 | 1014.6 |
| 20260507040037 | 3 | 360 | 1.6 | 6.4 | 0.00 | 0.00 | 0.00 | 81 | 1014.5 |
| 20260507034536 | 3 | 360 | 0.0 | 1.6 | 0.00 | 0.00 | 0.00 | 81 | 1014.5 |
| 20260507033035 | 3 | 360 | 0.0 | 1.6 | 0.00 | 0.00 | 0.00 | 81 | 1014.4 |
| 20260507031535 | 2 | 360 | 0.0 | 8.0 | 0.00 | 0.00 | 0.00 | 81 | 1014.3 |
| 20260507030036 | 2 | 360 | 4.8 | 8.0 | 0.00 | 0.00 | 0.00 | 82 | 1014.3 |
| 20260507024529 | 2 | 360 | 1.6 | 6.4 | 0.00 | 0.00 | 0.00 | 82 | 1014.2 |
| 20260507023026 | 3 | 360 | 0.0 | 1.6 | 0.00 | 0.00 | 0.00 | 84 | 1014.1 |
| 20260507021522 | 3 | 360 | 0.0 | 8.0 | 0.00 | 0.00 | 0.00 | 85 | 1014.1 |
| 20260507020020 | 5 | 360 | 0.0 | 1.6 | 0.00 | 0.00 | 0.00 | 83 | 1014.2 |
| 20260507014514 | 7 | 360 | 0.0 | 6.4 | 0.00 | 0.00 | 0.00 | 84 | 1014.0 |
| 20260507013014 | 7 | 360 | 1.6 | 6.4 | 0.00 | 0.00 | 0.00 | 85 | 1013.9 |
| 20260507011510 | 7 | 360 | 6.4 | 11.3 | 0.00 | 0.00 | 0.00 | 85 | 1013.9 |
| 20260507010010 | 7 | 360 | 8.0 | 14.5 | 0.00 | 0.00 | 0.00 | 85 | 1013.8 |
| 20260507004507 | 7 | 360 | 9.7 | 14.5 | 0.00 | 0.00 | 0.00 | 85 | 1013.8 |
| 20260507003007 | 7 | 360 | 6.4 | 12.9 | 0.00 | 0.00 | 0.00 | 86 | 1013.7 |
| 20260507001508 | 7 | 360 | 8.0 | 14.5 | 0.00 | 0.00 | 0.00 | 85 | 1013.7 |
| 20260507000003 | 7 | 360 | 8.0 | 14.5 | 0.00 | 0.00 | 0.00 | 85 | 1013.6 |
| 20260506234601 | 7 | 360 | 8.0 | 12.9 | 0.00 | 0.00 | 0.00 | 85 | 1013.6 |
| 20260506233100 | 7 | 360 | 8.0 | 14.5 | 0.00 | 0.00 | 0.00 | 86 | 1013.5 |
| 20260506231610 | 7 | 360 | 8.0 | 14.5 | 0.00 | 0.00 | 0.00 | 88 | 1013.6 |
| 20260506230110 | 7 | 360 | 4.8 | 12.9 | 0.00 | 0.00 | 0.00 | 88 | 1013.4 |
| 20260506224553 | 7 | 360 | 8.0 | 19.3 | 0.00 | 0.00 | 0.00 | 89 | 1013.4 |
| 20260506223050 | 8 | 360 | 11.3 | 17.7 | 0.00 | 0.00 | 0.00 | 90 | 1013.3 |
| 20260506221608 | 8 | 360 | 14.5 | 20.9 | 0.00 | 0.00 | 0.00 | 90 | 1013.3 |
| 20260506214547 | 8 | 360 | 16.1 | 19.3 | 0.00 | 0.00 | 0.00 | 90 | 1013.2 |
| 20260506213100 | 8 | 360 | 12.9 | 20.9 | 0.00 | 0.00 | 0.00 | 90 | 1013.1 |
| 20260506211542 | 8 | 360 | 12.9 | 19.3 | 0.00 | 0.00 | 0.00 | 89 | 1013.0 |
| 20260506210051 | 9 | 360 | 14.5 | 22.5 | 0.00 | 0.00 | 0.00 | 88 | 1013.0 |
| 20260506204539 | 9 | 360 | 14.5 | 20.9 | 0.00 | 0.00 | 0.00 | 86 | 1012.9 |
| 20260506203037 | 9 | 360 | 4.8 | 14.5 | 0.00 | 0.00 | 0.00 | 77 | 1012.9 |
| 20260506201539 | 9 | 360 | 3.2 | 11.3 | 0.00 | 0.00 | 0.00 | 74 | 1012.7 |
| 20260506200036 | 10 | 360 | 6.4 | 12.9 | 0.00 | 0.00 | 0.00 | 73 | 1012.6 |
| 20260506194533 | 10 | 360 | 9.7 | 17.7 | 0.00 | 0.00 | 0.00 | 73 | 1012.5 |
| 20260506193031 | 10 | 360 | 6.4 | 14.5 | 0.00 | 0.00 | 0.00 | 73 | 1012.4 |
| 20260506191530 | 10 | 360 | 8.0 | 17.7 | 0.00 | 0.00 | 0.00 | 71 | 1012.4 |
| 20260506190031 | 11 | 360 | 9.7 | 0.0 | 0.00 | 0.00 | 0.00 | 72 | 1012.2 |
| 20260506184526 | 11 | 360 | 9.7 | 16.1 | 0.00 | 0.00 | 0.00 | 72 | 1012.0 |
| 20260506183025 | 11 | 360 | 11.3 | 19.3 | 0.00 | 0.00 | 0.00 | 72 | 1011.9 |
| 20260506181524 | 11 | 360 | 8.0 | 16.1 | 0.00 | 0.00 | 0.00 | 72 | 1011.7 |
| 20260506180030 | 12 | 129 | 6.4 | 17.7 | 0.00 | 0.00 | 0.00 | 74 | 1011.6 |
| 20260506174528 | 13 | 360 | 0.0 | 4.8 | 0.00 | 0.00 | 0.00 | 72 | 1011.5 |
| 20260506173025 | 12 | 360 | 0.0 | 6.4 | 0.00 | 0.00 | 0.00 | 74 | 1011.5 |
| 20260506171534 | 13 | 360 | 0.0 | 1.6 | 0.00 | 0.00 | 0.00 | 73 | 1011.3 |
| 20260506170021 | 13 | 360 | 0.0 | 6.4 | 0.00 | 0.00 | 0.00 | 74 | 1011.3 |
| 20260506164523 | 14 | 360 | 1.6 | 6.4 | 0.00 | 0.00 | 0.00 | 74 | 1011.2 |
| 20260506163020 | 15 | 360 | 3.2 | 8.0 | 0.00 | 0.00 | 0.00 | 65 | 1011.1 |
| 20260506161519 | 15 | 360 | 3.2 | 11.3 | 0.00 | 0.00 | 0.00 | 72 | 1011.1 |
| 20260506160021 | 15 | 360 | 3.2 | 8.0 | 0.00 | 0.00 | 0.00 | 72 | 1011.1 |
| 20260506154519 | 14 | 360 | 3.2 | 12.9 | 0.00 | 0.00 | 0.00 | 73 | 1011.1 |
| 20260506153013 | 15 | 360 | 4.8 | 12.9 | 0.00 | 0.00 | 0.00 | 72 | 1011.1 |
| 20260506151511 | 14 | 360 | 4.8 | 14.5 | 0.00 | 0.00 | 0.00 | 74 | 1011.1 |
| 20260506150008 | 13 | 360 | 4.8 | 14.5 | 0.00 | 0.00 | 0.00 | 75 | 1011.1 |
| 20260506144503 | 13 | 360 | 9.7 | 14.5 | 0.00 | 0.00 | 0.00 | 78 | 1011.0 |
| 20260506143002 | 12 | 360 | 4.8 | 14.5 | 0.00 | 0.00 | 0.00 | 79 | 1011.0 |
| 20260506141502 | 12 | 360 | 1.6 | 16.1 | 0.00 | 0.00 | 0.00 | 82 | 1011.0 |
| 20260506140002 | 12 | 360 | 12.9 | 19.3 | 0.00 | 0.00 | 0.00 | 84 | 1010.9 |
| 20260506134600 | 12 | 360 | 12.9 | 19.3 | 0.00 | 0.00 | 0.00 | 84 | 1010.9 |
| 20260506133100 | 12 | 360 | 14.5 | 20.9 | 0.00 | 0.00 | 0.00 | 83 | 1010.8 |
| 20260506131612 | 13 | 360 | 16.1 | 20.9 | 0.00 | 0.00 | 0.00 | 82 | 1010.6 |
| 20260506130057 | 13 | 360 | 16.1 | 22.5 | 0.00 | 0.00 | 0.00 | 81 | 1010.6 |
| 20260506124555 | 15 | 360 | 11.3 | 19.3 | 0.00 | 0.00 | 0.00 | 76 | 1010.6 |
| 20260506123056 | 15 | 360 | 8.0 | 16.1 | 0.00 | 0.00 | 0.00 | 74 | 1010.5 |
| 20260506121558 | 16 | 67 | 6.4 | 24.1 | 0.00 | 0.00 | 0.00 | 70 | 1010.5 |
| 20260506120055 | 16 | 40 | 8.0 | 17.7 | 0.00 | 0.00 | 0.00 | 69 | 1010.5 |
| 20260506114555 | 16 | 360 | 11.3 | 22.5 | 0.00 | 0.00 | 0.00 | 74 | 1010.6 |
| 20260506113050 | 16 | 360 | 8.0 | 17.7 | 0.00 | 0.00 | 0.00 | 73 | 1010.6 |
| 20260506111550 | 15 | 45 | 11.3 | 20.9 | 0.00 | 0.00 | 0.00 | 72 | 1010.5 |
| 20260506110047 | 15 | 360 | 9.7 | 19.3 | 0.00 | 0.00 | 0.00 | 72 | 1010.7 |
| 20260506104546 | 15 | 37 | 8.0 | 17.7 | 0.00 | 0.00 | 0.00 | 70 | 1010.7 |
| 20260506103044 | 15 | 360 | 11.3 | 19.3 | 0.00 | 0.00 | 0.00 | 71 | 1010.7 |
| 20260506101545 | 14 | 360 | 6.4 | 17.7 | 0.00 | 0.00 | 0.00 | 71 | 1010.7 |
| 20260506100053 | 14 | 360 | 8.0 | 14.5 | 0.00 | 0.00 | 0.00 | 70 | 1010.8 |
| 20260506094540 | 15 | 360 | 3.2 | 16.1 | 0.00 | 0.00 | 0.00 | 69 | 1010.8 |
| 20260506093036 | 14 | 360 | 6.4 | 16.1 | 0.00 | 0.00 | 0.00 | 71 | 1010.9 |
| 20260506091534 | 13 | 360 | 4.8 | 16.1 | 0.00 | 0.00 | 0.00 | 69 | 1010.8 |
| 20260506090032 | 13 | 26 | 8.0 | 17.7 | 0.00 | 0.00 | 0.00 | 70 | 1010.8 |
| 20260506084536 | 13 | 360 | 6.4 | 12.9 | 0.00 | 0.00 | 0.00 | 71 | 1010.8 |
| 20260506083029 | 12 | 360 | 3.2 | 11.3 | 0.00 | 0.00 | 0.00 | 72 | 1010.7 |
| 20260506081525 | 12 | 360 | 4.8 | 16.1 | 0.00 | 0.00 | 0.00 | 73 | 1010.8 |
| 20260506073018 | 11 | 360 | 3.2 | 11.3 | 0.00 | 0.00 | 0.00 | 75 | 1010.8 |
| 20260506071515 | 10 | 360 | 6.4 | 12.9 | 0.00 | 0.00 | 0.00 | 77 | 1010.8 |
| 20260506061509 | 10 | 41 | 4.8 | 11.3 | 0.00 | 0.00 | 0.00 | 74 | 1011.0 |